Fayetteville, AR

12:35 AM CST on December 16, 2017 (GMT -0600)
Drake

Weather History for KFYV - October, 2012

Change the Weather History Date:

Monday, October 15, 2012

  Actual Average Record
Temperature  
Mean Temperature 60 °F 58 °F  
Max Temperature 78 °F 70 °F 89 °F (2015)
Min Temperature 44 °F 46 °F 29 °F (1952)
Degree Days  
Heating Degree Days 4 8  
Month to date heating degree days 92  
Since 1 July heating degree days 144  
Cooling Degree Days 0 1  
Month to date cooling degree days 18  
Year to date cooling degree days 1301  
Growing Degree Days 10 (Base 50)    
Moisture  
Dew Point 48 °F    
Average Humidity 70    
Maximum Humidity 100    
Minimum Humidity 35    
Precipitation  
Precipitation 0.00 in 0.13 in 0.98 in (2006)
Month to date precipitation 2.13  
Year to date precipitation 38.84  
Sea Level Pressure  
Sea Level Pressure 30.01 in    
Wind  
Wind Speed 5 mph (SSW)    
Max Wind Speed 14 mph    
Max Gust Speed 20 mph    
Visibility 10 miles    
Events      
T = Trace of Precipitation, MM = Missing Value Source: NWS Daily Summary

Daily Weather History Graph

Daily Weather History Graph

Search for Another Location

Airport or City:

Trip Planner

Search our weather history database for the weather conditions in past years. The results will help you decide how hot, cold, wet, or windy it might be!

Date:

Astronomy

Oct. 15, 2012 Rise Set
Actual Time 7:23 AM CDT 6:40 PM CDT
Civil Twilight 6:58 AM CDT 7:05 PM CDT
Nautical Twilight 6:28 AM CDT 7:35 PM CDT
Astronomical Twilight 5:58 AM CDT 8:05 PM CDT
Moon 7:33 AM CDT (10/15) 6:43 PM CDT (10/15)
Length of Visible Light 12h 07m
Length of Day
11h 16m
New Moon, 0% of the Moon is Illuminated
Oct 15
New Moon
Oct 21
First Quarter
Oct 29
Full
Nov 6
Last Quarter
Nov 13
New

Hourly Weather History & Observations

Time (CDT) Temp. Windchill Dew Point Humidity Pressure Visibility Wind Dir Wind Speed Gust Speed Precip Events Conditions
12:53 AM 46.9 °F - 46.9 °F 100% 30.07 in 10.0 mi South 3.5 mph - N/A   Clear
1:53 AM 46.0 °F 43.9 °F 46.0 °F 100% 30.06 in 9.0 mi South 4.6 mph - N/A   Clear
2:53 AM 46.0 °F 43.9 °F 45.0 °F 96% 30.06 in 10.0 mi South 4.6 mph - N/A   Clear
3:53 AM 46.0 °F 43.9 °F 45.0 °F 96% 30.06 in 10.0 mi South 4.6 mph - N/A   Clear
4:53 AM 45.0 °F 43.5 °F 44.1 °F 97% 30.05 in 10.0 mi SSW 3.5 mph - N/A   Clear
5:53 AM 45.0 °F - 44.1 °F 97% 30.06 in 10.0 mi Calm Calm - N/A   Clear
6:53 AM 44.1 °F 42.5 °F 44.1 °F 100% 30.06 in 10.0 mi South 3.5 mph - N/A   Clear
7:53 AM 45.0 °F - 44.1 °F 97% 30.07 in 10.0 mi Calm Calm - N/A   Clear
8:53 AM 51.1 °F - 48.0 °F 89% 30.09 in 10.0 mi South 4.6 mph - N/A   Clear
9:53 AM 60.1 °F - 52.0 °F 75% 30.09 in 10.0 mi South 4.6 mph - N/A   Clear
10:53 AM 71.1 °F - 48.0 °F 44% 30.06 in 10.0 mi WSW 6.9 mph - N/A   Clear
11:53 AM 73.9 °F - 46.9 °F 38% 30.05 in 10.0 mi West 11.5 mph - N/A   Clear
12:53 PM 75.0 °F - 46.0 °F 36% 30.04 in 10.0 mi West 13.8 mph 19.6 mph N/A   Clear
1:53 PM 75.9 °F - 46.9 °F 36% 30.01 in 10.0 mi West 11.5 mph 16.1 mph N/A   Clear
2:53 PM 77.0 °F - 48.0 °F 36% 29.98 in 10.0 mi West 10.4 mph - N/A   Clear
3:53 PM 77.0 °F - 48.0 °F 36% 29.96 in 10.0 mi Variable 5.8 mph - N/A   Clear
4:53 PM 75.9 °F - 46.0 °F 35% 29.94 in 10.0 mi SW 5.8 mph - N/A   Clear
5:53 PM 73.0 °F - 48.9 °F 42% 29.94 in 10.0 mi SW 4.6 mph - N/A   Clear
6:53 PM 64.9 °F - 51.1 °F 61% 29.95 in 10.0 mi South 3.5 mph - N/A   Clear
7:53 PM 62.1 °F - 52.0 °F 70% 29.96 in 10.0 mi Calm Calm - N/A   Clear
8:53 PM 57.9 °F - 51.1 °F 78% 29.95 in 10.0 mi South 4.6 mph - N/A   Clear
9:53 PM 59.0 °F - 51.1 °F 75% 29.95 in 10.0 mi SSW 6.9 mph - N/A   Clear
10:53 PM 57.0 °F - 50.0 °F 77% 29.94 in 10.0 mi South 5.8 mph - N/A   Clear
11:53 PM 55.9 °F - 48.9 °F 77% 29.94 in 10.0 mi Calm Calm - N/A   Clear